Retour au catalogue

STARLINK-32711

ActifCommunicationsVLEO
NORAD 62435·PAYLOAD·🇺🇸 United States

Lancé Dec 29, 2024 depuis Vandenberg Space Force Base

Loading…

Prochains Passages (prochaines 24 heures)

TLE

FraisSource: CelesTrak SupGP

Époque: Sep 15, 2026, 03:05 UTC

1 62435C 24251D   26258.12895833 -.00034262  00000+0 -10123-2 0  2581
2 62435  53.1576 174.5997 0001411  80.0882 272.3238 15.34407731    17

Suivez STARLINK-32711 en temps réel avec AllMySat

Download on the App Store